This is the latest recevied weather packets stored in our database for station/object N4JTC. If no packets are shown the sender has not sent any weather packets the latest 10 day(s).
| Time | Temp. | Humidity | Pressure | Rain* | Wind** | Luminosity | Snow |
|---|---|---|---|---|---|---|---|
| 1777423502 | 23.33° C | 86% | 1018.6 hPa | 0 mm | - | 0 W/m² | - |
| 1777423203 | 23.33° C | 85% | 1018.6 hPa | 0 mm | - | 0 W/m² | - |
| 1777422903 | 23.33° C | 85% | 1018.7 hPa | 0 mm | - | 0 W/m² | - |
| 1777422603 | 23.33° C | 85% | 1018.7 hPa | 0 mm | - | 0 W/m² | - |
| 1777422303 | 23.33° C | 84% | 1018.8 hPa | 0 mm | - | 0 W/m² | - |
| 1777421703 | 23.33° C | 84% | 1018.5 hPa | 0 mm | - | 1 W/m² | - |
| 1777421403 | 23.33° C | 84% | 1018.5 hPa | 0 mm | - | 5 W/m² | - |
| 1777421103 | 23.89° C | 84% | 1018.3 hPa | 0 mm | - | 9 W/m² | - |
| 1777420803 | 23.89° C | 84% | 1018.4 hPa | 0 mm | - | 13 W/m² | - |
| 1777420503 | 23.89° C | 84% | 1018.3 hPa | 0 mm | - | 19 W/m² | - |
| 1777419903 | 23.89° C | 83% | 1018.5 hPa | 0 mm | - | 32 W/m² | - |
| 1777419303 | 24.44° C | 82% | 1018.5 hPa | 0 mm | - | 49 W/m² | - |
| 1777418703 | 24.44° C | 81% | 1018.6 hPa | 0 mm | - | 65 W/m² | - |
| 1777418403 | 24.44° C | 80% | 1018.8 hPa | 0 mm | - | 74 W/m² | - |
| 1777418103 | 24.44° C | 80% | 1018.9 hPa | 0 mm | - | 86 W/m² | - |
| 1777417803 | 25° C | 80% | 1018.8 hPa | 0 mm | - | 101 W/m² | - |
| 1777417503 | 24.44° C | 80% | 1018.7 hPa | 0 mm | - | 117 W/m² | - |
| 1777417204 | 24.44° C | 80% | 1019 hPa | 0 mm | - | 143 W/m² | - |
| 1777416903 | 25° C | 80% | 1019 hPa | 0 mm | - | 159 W/m² | - |
| 1777416603 | 24.44° C | 80% | 1018.8 hPa | 0 mm | - | 166 W/m² | - |
| 1777416303 | 25° C | 79% | 1018.9 hPa | 0 mm | - | 161 W/m² | - |
| 1777416003 | 24.44° C | 80% | 1019.1 hPa | 0 mm | - | 163 W/m² | - |
| 1777415703 | 24.44° C | 80% | 1019.1 hPa | 0 mm | - | 176 W/m² | - |
| 1777415403 | 24.44° C | 80% | 1019.2 hPa | 0 mm | - | 188 W/m² | - |
| 1777415103 | 24.44° C | 80% | 1019.3 hPa | 0 mm | - | 203 W/m² | - |
* Rain latest hour (hover to see other rain measurements)
** Current wind speed in m/s (hover to see current wind gust speed)